Find Starlink 32941

NORAD ID: 63119 Int'l Des: 2025-039 Owner: SPXS Country: US Constellation: starlink operational
LEOCIRCULAR

当前视图

正在加载3D地球...

About Starlink 32941

Starlink 32941 (NORAD 63119) is a starlink constellation satellite (v2 mini) launched Feb 27, 2025 by SPXS of US. It operates in LEO, CIRCULAR orbit with a mass of 730.00 kg.

关于 Starlink 32941

正在加载描述...

即将过境

Passes for default location (London). Set your location on the main map for personalized predictions.

高度历史

Loading altitude history...

两行轨道根数

1 63119U 25039R 26170.20577789 .00011456 00000-0 42501-3 0 9992
2 63119 43.0005 148.0987 0002210 285.0509 75.0098 15.27591768 73724
Epoch: Jun 19, 2026 • Age: 18 hours

当前状态

高度 487.9 km
速度 7.62 km/s
星下点 -22.72°S, 95.14°E
发射日期 Feb 27, 2025
运行时间 1.3 years
类型 internet

技术详情

分类 Payload
质量 730.00 kg
干质量 700.00 kg
总质量 730.00 kg
长度 0.30 m
直径 4.10 m
跨度 29.00 m
形状 Box + pan
制造商 SPXS
平台类型 Starlink V2M
阶段状态 In Orbit
所有者/国家 SPXS/US

Most Searched